Location: Dumpton Point
(51.3500°N, 1.4433°E)
Time: 17:16:37
(UTC+00:00)

Cosmos 2360 Rocket - Pass Details

Date: 09 April 2020
Orbit: 834 x 845 km, 71.0° (Epoch: 25 May)

Event Time Altitude Azimuth Distance (km) Brightness Sun altitude
Rises 21:27:45 0° 330° (NNW) 3,395 6.8 -22.7°
Reaches altitude 10° 21:30:57 10° 348° (NNW) 2,459 5.5 -23.0°
Maximum altitude 21:34:54 19° 33° (NNE) 1,895 4.2 -23.4°
Enters shadow 21:37:55 13° 69° (ENE) 2,238 4.2 -23.7°
